Marion-Critt Cnty AP, Marion,, KY

12:40 PM CDT on May 26, 2017 (GMT -0500)
Marion-Critt Cnty AP, Marion,

Weather History for K5M9 - December, 2013

Change the Weather History Date:

Thursday, December 12, 2013

  Actual Average (KEHR) Record (KEHR)
Temperature  
Mean Temperature 17 °F -  
Max Temperature 28 °F 47 °F 71 °F (2015)
Min Temperature 6 °F 29 °F -6 °F (1962)
Degree Days  
Heating Degree Days 48    
Moisture  
Dew Point 7 °F    
Average Humidity 61    
Maximum Humidity 91    
Minimum Humidity 33    
Precipitation  
Precipitation 0.00 in - - ()
Sea Level Pressure  
Sea Level Pressure 30.51 in    
Wind  
Wind Speed 4 mph (WSW)    
Max Wind Speed 7 mph    
Max Gust Speed -    
Visibility 10 miles    
Events      
Averages and records for this station are not official NWS values.
T = Trace of Precipitation, MM = Missing Value Source: NWS Daily Summary

Daily Weather History Graph

Daily Weather History Graph

Search for Another Location

Airport or City:

Trip Planner

Search our weather history database for the weather conditions in past years. The results will help you decide how hot, cold, wet, or windy it might be!

Date:

Astronomy

Dec. 12, 2013 Rise Set
Actual Time 6:57 AM CST 4:35 PM CST
Civil Twilight 6:28 AM CST 5:04 PM CST
Nautical Twilight 5:55 AM CST 5:36 PM CST
Astronomical Twilight 5:23 AM CST 6:08 PM CST
Moon 1:38 PM CST (12/12) 2:24 AM CST (12/12)
Length of Visible Light 10h 35m
Length of Day
9h 37m
Waxing Gibbous, 80% of the Moon is Illuminated
Dec 12
Waxing Gibbous
Dec 17
Full
Dec 25
Last Quarter
Jan 1
New
Jan 7
First Quarter

Hourly Weather History & Observations

Time (CST) Temp. Windchill Dew Point Humidity Pressure Visibility Wind Dir Wind Speed Gust Speed Precip Events Conditions
12:15 AM 17.4 °F 8.0 °F 9.7 °F 72% 30.60 in 10.0 mi North 6.9 mph - N/A   Clear
12:35 AM 16.7 °F 9.6 °F 9.5 °F 73% 30.59 in 10.0 mi North 4.6 mph - N/A   Clear
12:55 AM 16.2 °F 6.5 °F 9.3 °F 74% 30.60 in 10.0 mi NNW 6.9 mph - N/A   Clear
1:15 AM 15.4 °F 6.8 °F 8.6 °F 74% 30.60 in 10.0 mi North 5.8 mph - N/A   Clear
1:35 AM 14.7 °F 5.9 °F 7.9 °F 74% 30.60 in 10.0 mi NNW 5.8 mph - N/A   Clear
1:55 AM 14.0 °F 8.2 °F 7.3 °F 75% 30.60 in 10.0 mi NNW 3.5 mph - N/A   Clear
2:15 AM 13.1 °F 2.8 °F 6.8 °F 76% 30.61 in 10.0 mi North 6.9 mph - N/A   Clear
2:35 AM 12.7 °F 5.0 °F 5.7 °F 74% 30.60 in 10.0 mi North 4.6 mph - N/A   Clear
2:55 AM 12.0 °F 4.1 °F 5.4 °F 75% 30.60 in 10.0 mi North 4.6 mph - N/A   Clear
3:15 AM 11.3 °F 3.3 °F 4.8 °F 75% 30.60 in 10.0 mi North 4.6 mph - N/A   Clear
3:35 AM 10.8 °F 2.7 °F 4.6 °F 76% 30.59 in 10.0 mi North 4.6 mph - N/A   Clear
3:55 AM 10.4 °F 4.0 °F 4.5 °F 77% 30.58 in 10.0 mi North 3.5 mph - N/A   Clear
4:15 AM 10.2 °F 3.8 °F 4.8 °F 79% 30.57 in 10.0 mi NE 3.5 mph - N/A   Clear
4:35 AM 9.7 °F - 4.6 °F 80% 30.57 in 10.0 mi Calm Calm - N/A   Clear
4:55 AM 9.3 °F - 4.8 °F 82% 30.58 in 10.0 mi Calm Calm - N/A   Clear
5:15 AM 8.6 °F - 4.8 °F 85% 30.58 in 10.0 mi Calm Calm - N/A   Clear
5:35 AM 9.1 °F - 4.6 °F 82% 30.58 in 10.0 mi Calm Calm - N/A   Clear
5:55 AM 8.4 °F - 4.1 °F 83% 30.57 in 10.0 mi Calm Calm - N/A   Clear
6:15 AM 8.2 °F - 5.0 °F 87% 30.58 in 10.0 mi Calm Calm - N/A   Clear
6:35 AM 7.7 °F - 4.8 °F 88% 30.58 in 10.0 mi Calm Calm - N/A   Clear
6:55 AM 6.8 °F -0.1 °F 4.6 °F 91% 30.57 in 10.0 mi SE 3.5 mph - N/A   Clear
7:15 AM 7.5 °F 0.8 °F 5.4 °F 91% 30.57 in 10.0 mi East 3.5 mph - N/A   Clear
7:35 AM 9.5 °F 1.2 °F 5.5 °F 84% 30.58 in 10.0 mi ENE 4.6 mph - N/A   Clear
7:55 AM 10.6 °F - 5.0 °F 78% 30.59 in 10.0 mi Calm Calm - N/A   Clear
8:15 AM 11.7 °F - 4.8 °F 74% 30.60 in 10.0 mi Calm Calm - N/A   Clear
8:35 AM 13.6 °F - 5.0 °F 68% 30.60 in 10.0 mi Calm Calm - N/A   Clear
8:55 AM 14.9 °F - 5.5 °F 66% 30.60 in 10.0 mi Calm Calm - N/A   Clear
9:15 AM 15.6 °F - 5.2 °F 63% 30.61 in 10.0 mi Calm Calm - N/A   Clear
9:35 AM 17.8 °F - 6.4 °F 61% 30.61 in 10.0 mi Calm Calm - N/A   Clear
9:55 AM 18.5 °F - 5.7 °F 58% 30.61 in 10.0 mi Calm Calm - N/A   Clear
10:15 AM 19.9 °F - 6.4 °F 56% 30.60 in 10.0 mi Calm Calm - N/A   Clear
10:35 AM 21.0 °F 14.6 °F 4.1 °F 48% 30.59 in 10.0 mi WSW 4.6 mph - N/A   Clear
10:55 AM 22.1 °F 15.9 °F 5.2 °F 48% 30.59 in 10.0 mi WSW 4.6 mph - N/A   Clear
11:15 AM 23.0 °F 15.8 °F 5.7 °F 48% 30.58 in 10.0 mi WSW 5.8 mph - N/A   Clear
11:35 AM 23.9 °F 15.8 °F 4.8 °F 44% 30.57 in 10.0 mi WSW 6.9 mph - N/A   Clear
11:55 AM 23.9 °F 15.8 °F -0.4 °F 35% 30.55 in 10.0 mi WSW 6.9 mph - N/A   Clear
12:15 PM 24.4 °F 18.6 °F 1.4 °F 37% 30.54 in 10.0 mi SSW 4.6 mph - N/A   Clear
12:35 PM 25.7 °F 21.5 °F 5.5 °F 42% 30.54 in 10.0 mi WSW 3.5 mph - N/A   Clear
12:55 PM 26.8 °F 19.3 °F 4.6 °F 39% 30.53 in 10.0 mi SSW 6.9 mph - N/A   Clear
1:15 PM 27.0 °F 21.6 °F 3.9 °F 37% 30.52 in 10.0 mi SW 4.6 mph - N/A   Clear
1:35 PM 27.3 °F 20.9 °F 2.5 °F 35% 30.51 in 10.0 mi SW 5.8 mph - N/A   Clear
1:55 PM 28.2 °F 23.1 °F 3.7 °F 35% 30.50 in 10.0 mi SW 4.6 mph - N/A   Clear
2:15 PM 28.2 °F 21.0 °F 3.9 °F 36% 30.50 in 10.0 mi WSW 6.9 mph - N/A   Clear
2:55 PM 28.2 °F 22.0 °F 3.7 °F 35% 30.49 in 10.0 mi SW 5.8 mph - N/A   Clear
3:15 PM 28.2 °F 23.1 °F 2.1 °F 33% 30.48 in 10.0 mi SW 4.6 mph - N/A   Clear
3:35 PM 28.4 °F 24.6 °F 5.5 °F 38% 30.48 in 10.0 mi SSW 3.5 mph - N/A   Clear
3:55 PM 28.4 °F 22.2 °F 8.6 °F 43% 30.48 in 10.0 mi SW 5.8 mph - N/A   Clear
4:15 PM 27.7 °F 20.4 °F 7.5 °F 43% 30.47 in 10.0 mi SW 6.9 mph - N/A   Clear
4:35 PM 27.0 °F 20.5 °F 7.7 °F 44% 30.46 in 10.0 mi SW 5.8 mph - N/A   Clear
4:55 PM 25.9 °F 19.2 °F 7.5 °F 46% 30.45 in 10.0 mi SW 5.8 mph - N/A   Clear
5:15 PM 25.5 °F 21.3 °F 7.2 °F 46% 30.44 in 10.0 mi SW 3.5 mph - N/A   Clear
5:35 PM 25.2 °F 20.9 °F 7.9 °F 48% 30.44 in 10.0 mi SW 3.5 mph - N/A   Clear
5:55 PM 24.1 °F 19.7 °F 8.6 °F 52% 30.44 in 10.0 mi SW 3.5 mph - N/A   Clear
6:15 PM 23.2 °F - 8.2 °F 53% 30.43 in 10.0 mi Calm Calm - N/A   Clear
6:35 PM 22.8 °F - 8.8 °F 55% 30.42 in 10.0 mi Calm Calm - N/A   Clear
6:55 PM 21.4 °F 15.1 °F 9.9 °F 61% 30.41 in 10.0 mi South 4.6 mph - N/A   Clear
7:15 PM 21.7 °F 15.5 °F 10.8 °F 63% 30.40 in 10.0 mi SSW 4.6 mph - N/A   Clear
7:35 PM 23.0 °F 17.0 °F 9.9 °F 57% 30.40 in 10.0 mi SW 4.6 mph - N/A   Clear
7:55 PM 22.8 °F 15.5 °F 10.0 °F 58% 30.40 in 10.0 mi SW 5.8 mph - N/A   Clear
8:15 PM 23.0 °F 14.7 °F 10.2 °F 58% 30.40 in 10.0 mi SW 6.9 mph - N/A   Clear
8:35 PM 23.5 °F 16.4 °F 9.7 °F 56% 30.40 in 10.0 mi SW 5.8 mph - N/A   Clear
8:55 PM 23.0 °F 15.8 °F 10.2 °F 58% 30.40 in 10.0 mi SW 5.8 mph - N/A   Clear
9:15 PM 21.2 °F 13.6 °F 10.2 °F 63% 30.38 in 10.0 mi SSW 5.8 mph - N/A   Clear
9:35 PM 22.1 °F 14.7 °F 10.2 °F 60% 30.38 in 10.0 mi SSW 5.8 mph - N/A   Clear
9:55 PM 22.5 °F 16.3 °F 10.2 °F 59% 30.37 in 10.0 mi SSW 4.6 mph - N/A   Clear
10:15 PM 21.7 °F 15.5 °F 10.4 °F 62% 30.37 in 10.0 mi SW 4.6 mph - N/A   Clear
10:35 PM 21.2 °F 12.6 °F 11.1 °F 65% 30.37 in 10.0 mi SW 6.9 mph - N/A   Clear
10:55 PM 22.1 °F 14.7 °F 11.3 °F 63% 30.36 in 10.0 mi SW 5.8 mph - N/A   Clear
11:15 PM 21.9 °F 13.4 °F 11.7 °F 65% 30.36 in 10.0 mi SW 6.9 mph - N/A   Clear
11:35 PM 22.5 °F 16.3 °F 12.0 °F 64% 30.36 in 10.0 mi SW 4.6 mph - N/A   Clear
11:55 PM 21.9 °F 14.5 °F 12.2 °F 66% 30.35 in 10.0 mi SW 5.8 mph - N/A   Clear